Regional Weather Roundup
Issued by NWS Charleston, SC

Current Version | Previous Version | Text Only | Print | Product List | Glossary Off
Versions: 1 2 3 4 5 6 7 8 9 10 11 12 13 14 15 16 17 18 19 20 21 22 23 24 25 26 27 28 29 30 31 32 33 34 35 36 37 38 39 40 41 42 43 44 45 46 47 48 49 50

000
ASUS42 KCHS 251410
RWRCHS
REGIONAL WEATHER ROUNDUP
NATIONAL WEATHER SERVICE CHARLESTON SC
900 AM EST THU DEC 25 2014

NOTE: "FAIR" INDICATES FEW OR NO CLOUDS BELOW 12,000 FEET WITH NO
SIGNIFICANT WEATHER AND/OR OBSTRUCTIONS TO VISIBILITY.

NOT ALL STATIONS ARE QUALITY CONTROLLED BY THE NATIONAL
WEATHER SERVICE. USE DATA WITH CAUTION...ESPECIALLY
DEWPOINT OBSERVATIONS.

SCZ027-030-031-034>040-042>050-251500-
...SOUTHEAST SOUTH CAROLINA...

CITY           SKY/WX    TMP DP  RH WIND       PRES   REMARKS
N CHARLESTON   CLOUDY    53  42  66 W10G18    30.09R
WATERFRONT PRK   N/A     54 N/A N/A W8G14       N/A
MOUNT PLEASANT FAIR      54  45  71 W12G17    30.09R
PINOPOLIS        N/A     54  45  71 W9        30.00R
MONCKS CORNER  FAIR      52  43  71 W3        30.08R
SUMMERVILLE    FAIR      52  43  71 W13       30.10R
BEAUFORT MCAS  PTSUNNY   53  44  71 W12G17    30.11R
BEAUFORT ARPT  FAIR      52  46  82 W12G17    30.10R HAZE
HILTON HEAD IS CLOUDY    54  46  76 W9        30.12R
WALTERBORO     CLOUDY    52  43  71 W8        30.11R
ALLENDALE      FAIR      50  37  62 VRB7G14   30.10R

...SOUTHERN MIDLANDS AND PEE DEE...

CITY           SKY/WX    TMP DP  RH WIND       PRES   REMARKS
GEORGETOWN     NOT AVBL
KINGSTREE      NOT AVBL
ORANGEBURG     CLOUDY    50  39  66 W10       30.08R
BARNWELL       FAIR      48  39  71 W8        30.12R
AIKEN          FAIR      46  37  71 W9G16     30.13R
MANNING        FAIR      52  43  71 W3G17     30.06R
COLUMBIA       CLOUDY    49  37  63 W14       30.09R
SUMTER         CLOUDY    50  40  68 W12       30.06R
FLORENCE       CLOUDY    52  42  69 W10       30.06R
MYRTLE BEACH   CLOUDY    54  41  62 W12       30.05R
N MYRTLE BEACH CLOUDY    54  41  61 W12G18    30.03R

$$

GAZ063-065-086>088-099>101-113>116-118-119-134>141-150-251500-
...SOUTHEAST GEORGIA...

CITY           SKY/WX    TMP DP  RH WIND       PRES   REMARKS
SAVANNAH ARPT  CLOUDY    52  43  71 W8G20     30.14R
HUNTER AAF     PTSUNNY   52  45  75 W10G20    30.13R
FORT STEWART   PTSUNNY   52  41  68 W12G18    30.16R
STATESBORO     PTSUNNY   50  41  72 W16       30.15R
SYLVANIA       PTSUNNY   49  41  72 NW14      30.13R
CLAXTON        FAIR      50  43  76 W10       30.15R

...CSRA...CENTRAL AND FAR SOUTHEAST GEORGIA...

CITY           SKY/WX    TMP DP  RH WIND       PRES   REMARKS
THOMSON        MOSUNNY   46  40  78 W7        30.18R
AUGUSTA-BUSH   PTSUNNY   48  35  60 W15       30.13R
AUGUSTA-DANIEL PTSUNNY   48  35  60 W12G22    30.13R
SWAINSBORO     FAIR      50  43  76 NW10G16   30.16R
VIDALIA        PTSUNNY   48  37  66 NW7       30.16R
EASTMAN        FAIR      47  40  76 W7        30.22R
HAZLEHURST     FAIR      50  43  77 NW6       30.16R
ALMA           PTSUNNY   50  42  74 NW9       30.18R
WAYCROSS       PTSUNNY   55  47  74 CALM      30.16R
JESUP          FAIR      54  45  71 NW9       30.17R
BAXLEY         FAIR      52  41  66 NW9       30.18R
BRUNSWICK      CLOUDY    54  45  71 W6        30.18R
SAINT SIMONS   CLOUDY    53  45  74 W6        30.16R

$$

SCZ027-028-034-036>038-045-046-048>050-GAZ119-141-251500-
...LAKE AND SUPPLEMENTAL COASTAL OBSERVATIONS...

STATION/POSITION TIME  TEMP    WIND        PRES    WAVE   SWELL
                       AIR SEA DIR/SP/G            HT/PER HT/PER/DIR
                 (UTC) (F)     (DEG/KT/KT) (MB)    (FT/S) (FT/S/D)
UPR LAKE MARION  NOT AVBL
WINYAH BAY       1300   54     280/  9     1015.0S
LAKE MURRAY      1300   49     270/ 12/ 18 1017.6R
ACE BASIN NERRS  NOT AVBL
FORT PULASKI     1400   53 56  270/ 15/ 21 1020.8R
SAPELO ISLAND    1300   53     290/  6     1019.0S

$$

ANZ835-935-AMZ111-154-330-350-352-354-370-450-454-472-251500-
...C-MAN AND BUOY OBSERVATIONS...

STATION/POSITION TIME  TEMP    WIND        PRES    WAVE   SWELL
                       AIR SEA DIR/SP/G            HT/PER HT/PER/DIR
                 (UTC) (F)     (DEG/KT/KT) (MB)    (FT/S) (FT/S/D)
BUOY 41004       1400   58 73  290/ 21/ 25 1017.4R   6/ 6
BUOY 41008       1400   54 59  300/ 16/ 17 1020.2R   3/ 4   2/140/ 8
FOLLY BEACH CMAN 1300   52     280/  6/  9 1018.0R
CAPERS NEARSHORE 1300   54     300/ 14/ 17   N/A
FRIPP NEARSHORE  NOT AVBL


STATION/POSITION TIME  TEMP    WIND        PRES    WAVE   SWELL
                       AIR SEA DIR/SP/G            HT/PER HT/PER/DIR
                 (UTC) (F)     (DEG/KT/KT) (MB)    (FT/S) (FT/S/D)
5E ST. MARYS GA  1400      61                N/A     2/ 6
FRYING PAN BUOY  1400   60 71  270/ 19/ 25 1016.5R   7/ 5
BUOY 41025       1400   68                 1011.9R   7/ 9
CAPE LOOKOUT NC  1300   60     260/ 16/ 20 1012.2R
BUOY 41002       1327   73 72  240/  8/ 10 1016.3R   8/ 8   7/220/ 8
BUOY 41010       1400   72 77  290/ 16/ 19 1019.2R   5/ 7   2/ 70/10
ST AUGUSTINE FL  1400   55     310/  6/  7 1022.4R


$$


USA.gov is the U.S. government's official web portal to all federal, state and local government web resources and services.